Find Starlink 5533

NORAD ID: 56355 Int'l Des: 2023-058 Owner: SPXS Country: US Constellation: starlink operational
LEOCIRCULARRETROGRADESSO

Live Position

Loading 3D Globe...

About Starlink 5533

Description loading...

Upcoming Passes

Passes for default location (London). Set your location on the main map for personalized predictions.

Altitude History

Loading altitude history...

Two-Line Element Set

1 56355U 23058AQ 26106.56597694 -.00000180 00000-0 -82834-5 0 9999
2 56355 97.6030 107.4596 0001625 85.6944 274.4468 15.05647794163826
Epoch: Apr 16, 2026 • Age: 11 hours

Current Status

Altitude 565.8 km
Velocity 7.58 km/s
Sub-Earth Point -40.78°S, 99.18°W
Launch Date Apr 27, 2023
Age 2.9 years
Type internet

Technical Details

Classification Payload
Mass 300.00 kg
Dry Mass 260.00 kg
Total Mass 300.00 kg
Length 0.20 m
Diameter 2.80 m
Span 9.00 m
Shape Box + pan
Manufacturer SPXS
Bus Type Starlink
Phase Status In Orbit
Owner/State SPXS/US

Most Searched